Flag for Canada Weather past 2 weeks in Paradise, Newfoundland and Labrador, Canada

Now
54 °F

Mostly cloudy.


Feels Like: 47 °F
Forecast: 55 / 67 °F
Wind: 28 mph from West

Location: St. John's

Current Time: Sep 21, 2014 at 2:05:29 AM

Latest Report: Sep 21, 2014 at 1:30 AM


Visibility: 15 mi

Pressure: 30.13 "Hg

Humidity: 82%

Dew point: 48 °F

Location of ParadiseLocation

Historic Weather in Paradise — Graph

°F

Paradise temperature yesterday

Maximum temperature yesterday: 57 °F (at 3:30 PM)
Minimum temperature yesterday: 43 °F (at 1:30 AM)
Average temperature yesterday: 49 °F

Past Weeks' High & Low Weather Summary

 TemperatureHumidityPressure
High77 °F (Sep 6, 1:30 PM)100% (Sep 6, 5:30 AM)30.49 "Hg (Sep 6, 5:30 AM)
Low39 °F (Sep 14, 3:30 AM)42% (Sep 8, 1:30 PM)29.69 "Hg (Sep 12, 4:30 PM)
Average56 °F83%30.05 "Hg
* Reported Sep 6 12:30 AM — Sep 21 12:30 AM, Paradise, Weather by CustomWeather, © 2014

Note: Actual official high and low records may vary slightly from our data, if they occured in-between our weather recording intervals... More about our weather records

Advertising

Paradise weather history for previous 24 hours

 ConditionsComfort  
Time TempWeatherWind HumidityBarometerVisibility
12:30 AM
Sep 21
54 °FMostly cloudy.23 mph77%30.15 "Hg15 mi
11:30 PM
Sep 20
54 °FMostly cloudy.25 mph77%30.15 "Hg15 mi
10:30 PM52 °FMostly cloudy.26 mph77%30.17 "Hg15 mi
9:30 PM52 °FOvercast.20 mph77%30.18 "Hg15 mi
8:30 PM54 °FMostly cloudy.31 mph72%30.19 "Hg15 mi
7:30 PM52 °FMore clouds than sun.26 mph77%30.18 "Hg15 mi
6:30 PM54 °FPartly sunny.28 mph67%30.18 "Hg15 mi
5:30 PM54 °FPartly sunny.22 mph67%30.18 "Hg15 mi
4:30 PM55 °FBroken clouds.26 mph59%30.18 "Hg15 mi
3:30 PM57 °FPartly sunny.26 mph55%30.17 "Hg15 mi
2:30 PM55 °FPartly sunny.26 mph59%30.19 "Hg15 mi
10:30 AM50 °FPassing clouds.21 mph62%30.22 "Hg15 mi
9:30 AM48 °FScattered clouds.20 mph71%30.23 "Hg15 mi
8:30 AM46 °FScattered clouds.18 mph76%30.22 "Hg15 mi
7:30 AM45 °FPassing clouds.17 mph76%30.19 "Hg15 mi
6:30 AM43 °FPassing clouds.17 mph76%30.16 "Hg15 mi
5:30 AM43 °FPassing clouds.26 mph76%30.12 "Hg15 mi
4:30 AM43 °FPassing clouds.22 mph71%30.10 "Hg15 mi
3:30 AM43 °FClear.22 mph71%30.07 "Hg15 mi
2:30 AM43 °FClear.23 mph61%30.06 "Hg15 mi
Weather by CustomWeather, © 2014

See weather overviewHow to use our weather pages